RH
16 18 17 16 16 15 15 15 13 14 21 25 25 23 22 21 21 22 22 21 21 22 22 22 22 19 17 15 15 17 17 15 12 15 19 14 10 13 16 16 15 12 11 11 12 13 13 14 14 15 13 12 11 11 12 12 12 11 10 12 13 12 13 14 15 17 17 20 30 44 46 40 45 56 62 63 63 66 66 70 77 82 85 89 87 86 85 81
11 15 18 18 17 16 16 16 15 14 19 25 25 24 22 20 21 22 22 21 21 21 21 22 21 19 18 16 16 16 14 11 13 18 16 10 11 15 17 17 16 15 15 15 16 15 13 13 13 14 12 11 11 11 11 11 11 10 10 11 12 12 14 17 18 19 21 23 29 42 49 46 46 54 61 57 58 62 62 70 76 81 88 91 89 87 88 88
11 11 14 18 19 18 17 17 17 14 17 23 25 24 23 21 21 22 22 21 21 21 20 21 21 19 18 17 17 15 12 13 16 16 12 12 15 16 16 15 15 15 15 16 16 15 13 12 13 13 11 10 10 10 9 10 10 9 10 11 11 14 17 23 26 25 28 30 32 42 48 48 54 60 61 54 54 56 59 70 72 74 83 87 89 88 91 94
20 14 11 13 16 19 18 18 18 17 16 20 25 24 23 22 21 21 22 21 21 21 20 20 21 20 18 18 18 14 13 14 15 14 14 15 15 14 15 14 14 14 14 15 14 13 14 13 13 12 10 9 9 9 7 9 10 10 13 14 14 17 20 29 33 33 36 36 37 42 44 49 60 65 62 55 56 62 68 78 79 76 81 85 88 87 90 94
29 25 19 14 12 14 18 19 18 18 16 18 22 24 24 22 21 21 20 21 21 20 19 19 20 19 18 18 17 15 15 14 13 14 15 14 13 14 14 14 14 14 14 15 14 14 14 14 13 12 10 9 8 8 7 10 13 13 19 22 21 22 24 32 38 41 42 39 39 40 43 52 59 62 64 59 60 71 79 85 85 80 82 87 87 86 90 93
35 33 29 24 18 12 13 17 19 18 17 17 19 22 24 23 22 21 20 20 20 20 19 19 19 18 18 17 15 15 15 14 14 14 13 13 13 13 13 14 14 14 14 14 15 15 14 14 13 11 9 8 7 8 7 13 17 15 22 28 28 28 28 35 41 45 44 39 41 42 48 55 54 60 67 66 69 79 85 89 88 83 85 89 86 87 90 92
38 36 34 31 28 21 13 13 17 19 18 17 17 20 23 23 22 21 20 20 20 20 19 19 18 18 17 15 14 14 14 15 17 14 13 13 13 13 14 14 14 13 14 15 16 15 14 13 12 11 9 7 8 10 11 16 18 17 23 30 31 32 34 40 45 47 45 43 46 47 53 55 51 57 66 72 78 80 85 90 90 88 87 87 88 88 88 89
38 37 35 33 31 29 23 15 12 15 19 18 16 18 21 23 22 21 21 20 20 19 19 19 18 18 17 15 15 13 12 15 15 13 13 12 12 14 13 14 14 13 14 15 15 15 14 12 11 11 9 10 11 14 16 17 19 21 26 31 34 38 42 46 47 47 46 47 51 50 53 55 54 56 61 71 79 79 84 88 90 92 89 87 89 88 87 87
37 36 34 32 30 30 29 24 15 9 14 19 17 17 19 21 21 21 21 20 20 19 19 19 18 18 16 15 15 12 13 15 13 12 12 12 13 13 13 14 13 14 15 13 14 15 15 12 12 12 11 13 15 16 18 17 21 26 28 31 35 41 46 47 46 47 48 48 50 49 51 54 56 58 62 72 80 81 82 83 85 88 88 88 87 85 89 88
37 34 32 30 29 28 28 28 24 13 8 15 19 17 17 19 20 20 20 20 19 18 19 19 18 18 15 16 14 11 14 14 11 12 11 12 13 13 13 14 12 14 15 13 13 14 16 16 15 15 14 15 17 18 20 21 25 31 31 32 38 43 46 47 45 47 47 48 49 45 45 48 50 55 62 75 82 80 78 79 80 82 86 88 85 85 89 88
35 31 29 26 25 25 26 26 26 21 9 9 17 18 17 17 18 19 19 20 18 18 19 19 18 17 15 15 13 12 15 13 10 11 10 12 13 13 13 13 12 13 14 13 12 12 16 19 17 16 15 15 19 22 27 30 30 32 31 32 38 41 42 43 42 45 43 44 49 43 39 42 42 50 62 73 80 76 72 77 79 78 81 84 84 85 88 88
32 29 27 25 22 19 22 24 25 25 14 5 11 16 17 16 17 18 19 19 18 18 19 19 18 16 16 15 13 14 15 13 10 10 11 12 12 13 13 12 11 11 13 12 11 11 12 15 16 15 16 18 21 25 31 35 30 29 27 27 33 34 37 39 39 43 39 41 48 41 38 37 36 52 67 72 77 75 72 74 76 76 78 81 84 86 88 88
30 30 28 23 19 14 17 22 23 24 16 5 7 14 17 16 16 17 18 17 17 18 18 18 17 16 18 17 14 15 14 13 11 11 12 12 12 12 11 11 11 10 11 11 11 13 11 14 16 17 20 19 22 27 31 33 28 26 23 23 28 29 33 37 39 41 38 43 48 40 43 42 41 58 70 69 71 72 70 69 73 76 75 78 82 85 88 87
31 31 27 19 14 11 14 20 22 23 15 5 5 11 16 16 15 15 16 16 17 18 18 18 16 17 20 16 15 15 13 13 12 12 12 12 12 12 11 11 11 10 11 10 11 14 16 18 19 20 22 20 24 29 27 27 25 23 22 20 22 25 29 34 37 37 37 47 47 40 44 39 41 61 69 65 66 67 66 65 72 76 74 75 77 81 85 86
32 31 25 14 8 8 13 19 21 20 12 5 5 10 16 17 15 15 15 15 17 17 17 17 15 18 18 13 16 16 13 15 14 13 12 12 12 12 11 11 11 10 10 10 11 15 19 20 18 18 23 24 25 25 21 21 21 20 22 21 19 21 28 33 35 34 36 42 42 40 39 28 34 57 67 65 65 66 64 64 69 74 76 75 74 75 80 85
33 30 20 9 6 8 13 17 19 17 8 4 7 12 16 16 15 15 15 16 18 17 18 19 16 18 17 11 14 16 17 17 14 13 11 11 12 11 11 11 11 10 10 11 11 15 18 20 21 20 23 23 20 17 16 19 18 17 18 21 20 21 25 29 31 31 33 35 35 36 34 26 30 48 64 70 68 64 61 66 69 72 76 73 72 73 75 81
34 29 15 6 7 9 12 16 17 12 5 6 12 15 17 17 17 17 17 18 18 16 18 20 16 16 15 11 13 15 17 17 13 13 11 10 11 10 11 11 11 11 11 11 11 14 16 19 22 20 20 18 15 14 15 17 17 17 17 18 20 21 22 24 27 30 30 31 30 30 30 26 25 35 54 66 67 60 55 63 70 69 70 68 69 71 73 78
35 26 11 7 9 10 13 15 13 8 7 12 16 18 20 21 21 22 23 19 17 18 18 19 17 16 13 12 15 16 16 14 12 12 10 10 10 9 11 10 10 10 10 10 10 10 12 16 17 14 15 15 14 14 15 15 15 17 18 18 19 19 20 21 25 27 27 29 29 28 28 25 22 25 38 52 58 55 52 60 66 66 67 69 72 70 70 75
36 24 9 9 13 16 17 14 14 16 18 18 20 23 26 27 26 26 26 20 19 23 20 18 20 18 13 15 19 17 15 12 10 11 10 10 9 9 10 10 10 9 8 8 9 9 9 11 13 11 12 12 12 12 12 12 13 14 15 16 17 18 19 19 21 23 25 27 25 24 25 22 22 21 27 41 50 52 55 61 63 64 66 69 71 71 72 74
37 23 10 13 21 22 16 14 24 30 29 28 27 28 30 28 23 22 24 21 21 22 20 21 22 18 15 17 21 17 13 11 9 11 10 9 9 9 9 9 9 8 7 8 8 9 9 10 11 10 9 9 9 11 12 12 12 13 13 14 15 16 18 19 21 22 23 26 23 21 23 21 21 20 23 35 45 50 55 58 61 62 62 63 64 68 74 78
38 24 10 18 26 18 13 21 32 33 32 32 31 32 34 32 26 25 26 23 22 21 22 24 23 21 20 20 20 17 13 11 10 11 10 10 10 9 9 9 8 8 8 8 8 10 10 10 10 8 8 8 9 11 13 13 12 12 12 12 14 15 16 18 21 23 23 25 22 19 21 20 19 19 23 31 38 41 44 47 52 55 55 57 59 62 69 79
38 24 11 21 24 13 17 29 34 33 33 33 35 38 38 36 34 32 30 25 22 22 24 24 23 22 21 18 15 14 13 10 9 11 10 10 10 8 8 8 8 8 8 8 9 10 10 9 9 8 9 9 10 11 12 13 12 11 11 12 14 14 16 21 22 23 24 23 20 19 20 19 17 18 23 30 31 34 41 43 45 51 54 54 54 57 64 76
38 23 11 22 20 13 24 33 34 35 34 33 36 38 36 37 38 35 35 28 22 23 25 23 21 20 17 14 14 13 12 9 9 11 10 10 10 8 8 8 8 8 8 8 8 10 10 8 9 9 10 10 10 11 11 11 11 10 10 12 14 13 16 23 24 23 24 22 20 20 20 16 17 20 24 31 34 38 45 45 48 55 56 55 56 58 60 66
38 23 12 21 20 18 27 32 35 35 32 33 34 35 33 34 37 37 38 30 21 21 21 18 18 18 15 13 14 14 11 10 10 10 11 10 9 8 8 8 8 8 7 8 7 7 8 9 9 10 10 9 9 11 10 9 10 10 10 11 12 12 14 18 21 22 24 23 20 20 23 19 16 20 22 29 35 39 43 44 47 51 52 57 63 64 63 61
38 24 13 20 23 23 28 32 36 34 33 34 32 33 31 28 32 36 38 29 19 18 16 14 15 16 14 12 12 12 10 10 11 10 11 10 9 9 9 9 9 8 8 8 7 7 8 9 10 9 9 9 9 9 9 9 9 10 10 10 11 12 12 15 17 19 22 22 18 19 27 24 16 18 20 23 27 31 39 42 40 42 46 53 57 61 65 65
39 26 13 20 26 26 30 33 34 32 32 32 30 29 28 27 30 33 35 25 16 16 15 14 14 13 14 14 12 11 10 10 10 10 10 9 9 9 9 9 9 8 9 8 7 8 9 9 10 9 9 9 8 9 9 9 9 10 10 9 10 10 11 14 14 16 19 20 17 16 23 24 19 19 20 21 22 24 32 36 35 37 40 46 49 52 60 64
40 27 12 20 26 26 30 32 33 33 31 30 28 26 27 27 29 34 33 23 19 19 15 15 15 13 15 15 12 11 11 10 10 10 10 9 9 9 8 8 8 9 10 9 10 10 9 8 9 8 8 8 8 9 9 9 9 10 10 9 10 10 10 12 13 15 17 17 17 15 17 22 21 20 21 22 21 21 24 28 30 33 37 43 48 49 55 60
41 26 12 20 25 24 30 31 32 33 30 28 26 27 28 25 29 36 31 24 26 21 16 17 16 14 17 16 14 12 11 11 11 10 10 9 9 9 8 8 8 9 10 10 12 12 9 9 9 8 8 8 8 9 8 8 9 10 11 10 10 11 11 11 12 14 15 16 19 18 16 22 23 20 19 19 19 20 22 24 25 29 34 41 48 50 53 57
42 25 12 20 23 23 28 29 30 29 25 24 24 25 24 24 32 33 24 24 26 20 18 20 17 17 18 15 13 12 11 12 11 10 10 9 9 9 9 10 9 9 9 10 10 10 10 11 11 9 8 8 9 9 8 8 10 10 10 11 11 12 11 12 13 14 16 19 21 20 17 21 24 20 18 19 20 21 22 21 22 26 31 38 47 52 54 58
42 24 13 20 23 21 24 26 27 24 21 22 25 25 24 30 35 27 23 28 27 21 20 19 18 20 16 12 12 13 12 11 10 10 9 10 10 10 11 12 10 9 9 9 9 10 10 13 14 12 11 11 9 10 11 9 9 11 11 10 11 12 12 13 14 14 18 21 21 19 17 19 24 21 19 21 23 23 22 21 22 24 28 38 48 52 53 57
38 22 15 20 23 21 23 28 27 25 23 23 29 33 31 33 32 24 27 32 26 22 21 19 19 18 13 11 13 12 11 11 10 9 9 10 10 10 12 12 10 10 10 10 11 10 10 11 13 14 14 13 9 10 12 10 10 11 10 10 13 15 15 16 17 16 19 22 20 17 16 18 23 23 19 20 21 22 22 21 23 25 28 35 44 47 49 54
32 20 18 23 24 21 24 29 28 26 24 23 33 40 36 32 29 26 30 33 31 26 23 22 19 16 14 12 13 12 10 11 11 9 10 11 11 13 14 12 12 15 15 14 13 11 11 11 11 14 15 13 11 9 10 10 10 10 9 11 16 17 16 18 19 17 19 21 18 16 18 19 22 22 19 20 20 22 26 26 27 30 32 35 39 45 51 56
26 19 23 26 23 19 21 24 25 26 22 25 37 39 34 31 32 32 29 30 37 33 27 27 22 18 15 13 14 13 11 12 12 11 13 12 12 15 15 14 14 16 16 15 14 13 13 13 12 13 14 13 11 9 10 11 9 10 11 13 16 17 18 19 19 18 21 22 17 15 18 21 21 20 18 20 23 28 31 32 35 39 39 38 38 42 50 58
24 22 26 26 20 17 17 19 23 22 19 28 38 36 34 33 34 37 31 28 34 31 28 29 24 19 16 14 16 14 12 15 13 12 13 12 13 15 15 15 14 13 14 15 16 16 16 17 16 15 15 14 11 10 10 10 9 9 9 10 14 16 18 21 20 19 21 21 18 18 21 23 23 22 19 19 24 30 32 35 41 45 44 43 41 42 50 57
22 23 23 17 14 11 11 16 20 17 21 35 37 32 34 33 31 34 30 27 30 29 28 28 22 18 17 17 17 14 14 16 14 13 13 13 17 18 16 17 16 15 14 15 18 17 17 19 17 16 17 15 13 12 11 11 11 10 9 10 14 14 15 22 27 28 26 23 21 21 21 20 21 20 18 18 21 25 28 32 36 38 40 43 43 44 49 53
21 27 23 12 10 7 9 18 17 15 29 40 34 30 32 30 28 30 28 28 31 28 25 24 21 18 19 19 17 14 15 16 15 15 16 16 18 19 19 18 19 18 15 16 18 17 18 19 17 16 18 16 16 15 13 14 14 12 11 13 15 14 15 22 30 33 32 26 23 22 21 20 20 20 18 17 19 19 20 22 24 29 35 39 40 43 46 48
23 36 34 21 12 7 14 23 18 20 36 39 32 33 32 28 27 26 27 32 34 31 25 24 26 23 20 20 17 14 13 14 15 15 17 19 19 20 19 19 21 20 17 17 18 17 18 20 18 16 17 18 20 18 14 14 14 13 14 15 15 16 17 19 23 25 25 24 23 23 23 22 23 24 21 18 21 20 19 19 20 23 27 31 36 41 45 49
26 42 46 33 17 11 19 23 19 29 41 35 33 37 33 29 28 27 30 33 33 32 26 24 29 28 22 19 17 15 13 14 16 16 17 19 21 22 20 19 21 20 18 17 18 19 19 19 19 17 17 18 18 18 17 15 14 13 14 13 16 21 22 21 22 24 25 25 25 24 24 22 22 25 24 22 24 23 21 20 20 22 25 29 34 39 47 56
27 49 52 35 18 14 20 19 22 36 39 30 32 35 32 28 28 30 34 34 31 30 27 26 28 30 27 20 17 15 15 16 16 15 18 21 23 23 21 21 21 20 20 18 18 21 21 22 21 17 17 17 16 17 19 19 16 15 15 14 17 21 22 23 23 24 26 26 25 25 26 25 22 22 24 24 25 25 24 23 22 25 30 34 36 39 44 53
32 52 46 27 19 22 23 20 27 37 34 31 32 32 31 28 26 31 36 36 33 29 28 29 28 28 29 25 19 17 17 18 17 17 19 21 23 23 23 23 21 21 22 19 20 24 24 25 23 18 16 17 19 20 21 22 21 19 19 20 21 22 23 25 26 25 25 24 25 26 27 28 24 20 21 24 25 25 24 24 23 25 35 39 39 41 42 45
34 51 41 29 28 32 30 24 29 35 32 34 35 32 31 29 27 30 34 36 34 29 28 29 26 24 25 24 21 20 20 19 18 19 19 20 22 23 25 28 25 23 23 22 21 26 26 23 21 21 20 21 25 25 24 25 24 21 22 23 24 23 24 27 28 27 24 24 26 27 28 29 25 21 23 25 25 23 22 24 22 23 36 45 43 45 48 49
36 49 43 36 33 36 34 27 30 36 33 34 35 33 33 33 30 29 30 30 28 25 26 27 26 25 25 24 22 21 22 21 20 20 20 21 23 24 28 32 30 25 26 24 22 30 35 27 22 24 25 24 26 25 25 27 26 22 22 25 25 23 25 27 28 29 27 26 28 28 28 29 25 24 27 25 24 23 23 26 23 21 34 46 43 44 49 51
43 50 47 42 36 38 35 26 30 35 33 35 37 35 36 36 31 25 25 27 26 24 26 27 27 28 28 26 23 22 24 26 24 22 21 22 25 29 33 36 33 26 26 25 25 34 38 30 25 27 27 25 24 23 25 27 27 26 26 27 27 26 28 29 28 30 28 28 30 28 28 30 26 24 25 24 24 25 25 28 28 29 39 46 43 43 49 52
44 52 55 48 39 40 32 23 28 31 33 40 39 35 35 36 35 30 26 27 28 27 28 30 29 27 28 26 24 24 27 30 27 24 23 23 27 34 38 38 34 28 30 32 30 33 33 27 26 29 31 32 31 29 28 27 27 28 28 29 28 28 29 31 31 30 28 31 32 28 27 29 26 24 24 25 26 26 26 29 32 36 43 46 43 44 48 51
39 48 56 51 44 45 36 29 30 29 35 44 40 37 37 36 40 40 32 30 32 31 31 32 30 26 25 26 26 27 28 29 30 29 26 24 29 34 36 39 36 32 37 39 33 34 33 30 30 28 29 34 35 35 36 32 28 29 30 30 28 28 32 33 31 27 28 33 33 28 29 29 26 25 27 29 29 29 30 31 33 37 43 45 45 45 46 48
50 46 45 47 45 43 38 39 40 33 35 41 39 39 39 36 37 38 35 33 34 35 34 31 28 26 25 27 28 29 28 26 27 28 26 25 28 31 33 38 38 39 43 40 35 37 33 31 37 35 31 34 36 38 41 37 32 32 33 32 30 31 35 34 28 26 30 32 30 31 34 33 31 31 32 33 34 34 34 35 37 41 45 45 46 45 45 46
52 45 42 45 44 39 34 37 39 36 38 41 38 39 39 36 34 34 36 37 34 35 36 31 27 28 30 32 32 32 30 26 26 28 29 27 27 30 33 33 33 41 49 43 39 39 32 33 43 43 38 37 35 37 39 37 36 35 34 34 33 35 39 38 34 33 33 32 33 38 39 36 37 39 38 38 39 39 40 42 44 44 42 43 43 41 41 43
47 51 58 57 45 36 33 34 36 38 42 43 41 42 39 34 33 35 36 35 34 33 33 33 32 30 30 29 31 34 34 31 33 35 32 28 28 29 31 30 27 34 42 37 36 39 32 33 43 43 41 40 34 32 35 35 35 35 34 35 35 36 41 42 40 38 36 35 38 42 43 42 43 42 42 44 45 46 46 46 46 43 40 40 39 39 39 41
47 55 64 63 52 43 43 46 44 40 43 44 42 41 38 33 35 38 34 32 35 32 29 34 38 34 31 28 28 34 37 36 40 42 36 33 35 33 32 33 30 28 31 31 36 41 36 37 44 42 39 41 35 31 33 34 34 34 33 33 33 36 40 41 41 40 39 39 40 41 45 47 46 44 45 47 48 48 47 46 44 43 42 41 41 43 42 42
58 66 67 64 58 53 56 57 45 37 41 45 44 40 38 35 34 36 35 34 37 33 27 33 39 36 33 29 27 33 36 34 37 44 43 39 39 36 34 36 32 28 31 32 36 40 36 41 50 43 35 39 37 32 33 33 33 34 34 32 32 35 39 41 44 45 43 41 41 41 44 45 44 45 47 47 48 47 47 48 47 46 46 46 45 47 48 48
52 68 75 69 56 52 57 53 40 36 37 38 41 41 38 34 32 34 38 39 39 36 31 34 38 37 34 32 31 33 33 30 31 36 38 36 35 34 34 35 33 32 34 33 35 35 30 37 48 39 29 35 37 33 35 34 31 34 39 40 37 37 41 44 46 49 49 47 42 40 43 46 45 46 47 47 47 48 49 51 51 49 49 49 49 49 51 52
48 62 77 75 63 54 52 46 38 36 35 34 39 42 38 34 32 34 38 39 40 42 44 42 37 33 35 36 36 35 32 31 30 30 29 29 29 31 33 33 31 31 32 32 33 31 27 31 37 30 26 34 38 36 38 37 35 38 44 46 43 41 43 46 48 51 53 50 45 43 47 51 48 45 46 47 48 48 50 51 53 54 52 51 52 51 52 54
Wind_Speed
16 15 14 13 12 11 10 8 6 4 3 3 3 4 5 5 5 6 7 8 10 10 10 9 10 10 9 7 7 8 6 6 8 8 7 6 8 10 10 12 12 14 15 16 15 13 13 11 9 8 7 7 6 6 5 2 3 5 4 4 2 2 1 2 1 1 2 1 3 5 3 1 1 3 3 2 4 5 4 5 5 6 6 6 7 7 7 7
15 15 14 13 12 11 9 8 6 4 2 2 2 3 4 4 4 5 7 8 9 10 10 10 10 10 10 8 8 7 8 11 11 9 7 9 11 11 10 11 11 12 13 11 10 10 10 10 10 8 7 7 5 4 4 3 4 4 2 2 1 3 4 2 2 1 2 4 2 4 2 2 4 4 1 2 2 2 2 4 4 5 5 5 8 7 8 8
16 15 14 13 11 10 9 8 6 4 1 1 1 1 3 3 4 5 6 8 9 10 10 10 10 10 10 10 8 7 11 12 12 9 9 11 11 10 9 9 9 9 8 7 8 8 7 8 9 8 6 6 5 3 4 3 3 2 3 2 4 5 4 3 2 2 4 6 4 4 3 4 6 5 2 4 0 1 4 6 4 4 6 7 8 7 8 8
18 16 15 13 11 10 9 7 6 5 1 1 1 1 2 3 4 5 6 8 9 10 11 11 11 11 11 10 6 9 11 10 10 8 8 9 8 8 8 7 6 6 5 6 10 10 8 7 8 7 6 6 5 3 3 3 2 1 3 3 6 3 3 5 5 5 6 6 5 5 3 5 6 4 3 5 2 2 6 7 6 4 6 7 8 7 7 7
19 18 17 15 13 11 9 7 6 5 3 1 2 2 2 3 4 5 6 7 9 10 11 11 11 11 11 9 6 8 8 7 7 5 7 8 7 7 7 7 7 6 4 5 8 10 10 8 8 8 7 5 6 5 3 3 2 1 2 5 5 2 3 7 6 6 6 5 6 5 5 5 4 4 6 6 2 3 4 4 4 4 7 7 7 7 7 8
19 18 18 17 15 12 10 7 6 5 4 2 3 3 3 3 4 5 6 7 8 10 11 11 11 12 11 7 7 4 5 4 6 5 7 7 6 7 8 9 9 9 7 5 5 8 9 9 9 9 6 4 4 2 4 4 2 0 3 5 5 4 5 7 6 6 6 6 6 6 6 4 2 4 7 7 6 5 3 3 4 5 7 7 6 6 7 8
18 18 18 17 16 14 12 9 7 6 4 3 3 4 4 4 4 5 6 6 8 10 11 11 11 12 10 7 8 6 7 10 7 6 8 6 6 7 8 11 10 11 10 5 4 7 8 9 9 7 5 4 3 2 4 4 1 1 4 6 6 6 7 7 6 6 6 7 7 5 4 3 2 3 5 6 6 6 4 6 6 7 7 7 6 7 7 7
17 17 17 17 16 15 13 11 8 6 5 4 3 3 4 5 5 4 5 6 8 10 11 10 11 13 9 6 7 10 12 10 7 7 7 6 7 7 9 11 10 11 10 6 5 5 7 9 8 6 4 3 4 4 5 4 2 2 5 7 6 7 8 7 6 6 7 6 5 3 4 5 4 4 6 7 6 6 6 7 7 7 7 6 6 7 7 6
17 18 18 17 17 15 14 12 10 7 6 5 4 3 4 5 4 4 6 6 8 10 10 10 10 12 9 5 6 9 10 6 6 6 6 6 6 6 10 10 10 10 7 8 8 4 3 6 7 6 3 5 4 5 3 2 3 5 7 8 7 8 8 6 6 6 6 5 3 2 4 4 3 5 7 8 6 7 7 8 8 8 6 5 6 6 6 6
18 18 18 18 17 16 14 12 11 9 6 5 5 4 4 5 5 5 5 6 8 9 9 9 10 11 8 4 5 7 8 4 4 4 5 5 5 7 9 8 10 9 5 8 8 4 4 5 7 6 6 7 4 4 2 1 6 8 8 9 8 8 7 5 6 5 4 4 4 3 3 2 1 2 5 6 6 7 8 9 8 8 6 4 5 5 4 5
19 19 19 19 18 17 15 13 11 10 8 5 5 4 4 5 5 5 5 6 7 8 8 8 10 10 7 2 3 8 6 4 5 4 5 5 5 7 7 8 10 8 6 7 7 5 6 7 7 5 5 7 5 7 6 5 9 9 8 9 8 7 7 5 5 4 2 3 3 4 1 2 3 3 4 6 6 7 8 9 8 7 6 4 5 5 4 4
20 21 21 20 20 18 16 14 11 10 8 6 5 4 5 4 5 5 5 6 7 7 7 7 9 9 7 3 5 9 6 5 6 6 6 5 5 6 6 9 9 9 8 6 7 5 6 7 4 3 5 7 5 6 8 7 8 7 3 4 7 6 5 4 3 3 2 2 3 5 2 4 5 5 7 8 7 8 8 8 8 6 5 4 4 4 4 4
22 23 23 22 21 18 16 13 11 10 8 6 5 4 5 4 4 5 5 5 6 6 5 7 8 7 6 4 8 8 6 7 7 7 7 5 5 6 7 8 9 9 9 8 8 6 10 10 5 8 9 6 5 6 8 7 5 5 2 1 4 5 5 5 2 1 1 2 3 5 0 5 7 6 8 9 8 7 7 7 7 6 5 4 4 4 4 4
23 24 25 24 22 18 15 12 10 9 7 6 4 4 4 3 3 4 4 4 4 4 4 7 7 6 5 7 9 7 7 7 7 6 5 5 5 5 6 7 8 9 8 10 10 9 13 12 8 10 7 5 9 9 9 6 4 3 2 1 1 1 5 5 3 1 1 2 4 6 1 6 7 5 7 8 7 6 5 6 6 6 5 4 4 3 3 4
25 27 28 26 22 17 14 11 9 7 6 5 3 2 2 2 2 2 2 2 2 3 4 6 6 6 7 9 8 8 9 7 6 5 4 5 3 2 4 4 6 7 7 10 11 12 12 9 6 8 7 8 10 9 5 4 2 1 1 2 2 3 5 5 4 2 1 2 4 7 2 6 5 4 7 7 8 6 6 6 6 6 5 4 4 3 3 3
26 28 29 27 20 15 12 9 7 5 4 3 2 1 1 1 1 1 0 0 1 2 3 5 4 3 5 10 8 6 7 5 5 4 5 5 2 2 2 4 5 5 7 9 11 11 8 6 6 6 7 7 6 4 3 4 3 1 2 4 4 3 4 5 5 3 1 1 1 3 3 5 6 6 7 7 8 7 5 6 7 7 6 5 4 4 3 3
28 30 30 24 17 12 9 7 4 3 2 0 1 2 2 2 3 2 2 1 1 1 3 5 5 4 4 10 8 5 5 5 5 4 5 5 4 4 3 3 4 5 8 10 10 7 5 6 5 5 4 3 1 2 2 2 4 3 1 3 4 3 3 4 4 3 4 2 1 1 2 3 6 6 6 6 7 5 3 5 7 7 7 6 6 5 5 4
29 32 29 21 14 10 7 5 3 1 1 3 4 4 3 3 3 3 2 1 1 1 1 5 5 5 7 9 6 5 6 6 6 4 4 4 4 4 4 4 5 8 10 8 6 4 4 4 3 3 3 2 2 3 1 4 4 3 2 2 4 3 3 5 5 4 5 3 1 2 0 3 4 4 5 5 6 4 3 3 5 6 6 7 6 6 6 5
30 32 28 18 11 9 6 4 3 2 3 5 5 4 4 3 3 3 2 1 2 2 3 4 1 1 7 7 4 5 7 8 8 5 3 4 3 3 3 5 6 7 9 6 5 3 2 4 4 3 3 2 2 2 4 5 5 4 3 3 4 4 5 6 6 4 4 3 2 0 1 3 3 3 4 5 6 5 4 4 4 4 5 6 6 6 6 6
30 32 25 14 10 8 6 5 5 4 4 6 5 4 3 3 4 4 2 1 1 2 3 3 2 3 6 5 3 5 9 10 9 6 5 5 4 4 4 5 7 7 5 3 4 3 2 4 3 1 2 2 1 3 4 3 3 3 0 2 3 4 6 6 5 4 3 3 1 2 2 1 1 3 4 5 6 5 5 5 4 4 5 5 5 6 6 5
29 32 23 11 9 8 6 7 6 6 6 6 6 4 3 2 2 3 1 2 3 1 1 1 2 2 2 2 3 6 8 9 8 6 6 5 5 6 5 6 8 6 3 1 2 2 4 4 2 4 5 4 4 2 1 2 2 3 2 1 2 4 6 5 4 4 3 4 2 2 3 0 1 2 5 5 5 4 4 4 4 4 4 4 5 5 6 5
29 31 20 10 9 7 7 7 7 8 8 9 8 7 7 6 4 3 1 2 4 2 1 1 3 3 3 3 6 7 7 9 9 6 5 5 5 4 4 6 6 4 5 5 3 4 5 1 6 5 3 1 1 0 3 3 3 3 1 1 2 4 4 5 3 4 4 3 3 2 3 3 5 2 4 4 4 3 2 3 3 3 4 4 4 5 5 6
28 30 18 9 8 5 7 7 8 8 8 10 10 8 8 7 6 5 2 1 4 4 2 1 2 3 4 5 6 6 5 7 9 6 4 5 3 0 2 4 3 5 7 6 4 3 3 5 7 3 1 2 2 2 4 4 3 1 2 1 4 4 1 3 3 4 3 3 3 4 3 5 6 4 4 2 2 2 3 3 3 4 4 4 4 4 5 6
28 29 17 8 6 5 7 7 8 8 9 10 9 8 7 7 7 6 2 1 3 5 3 3 3 4 4 4 5 3 3 5 5 5 4 2 1 1 1 1 3 6 5 3 3 1 6 8 5 3 3 3 3 4 5 4 2 1 2 3 5 5 4 5 3 4 4 4 3 6 2 5 6 6 6 3 2 3 3 4 5 5 5 5 5 5 5 6
27 28 16 7 5 4 6 7 7 7 8 8 7 6 6 7 8 6 1 3 4 5 3 4 3 3 4 3 4 2 5 7 5 4 5 1 1 1 1 0 3 4 7 4 3 3 7 6 1 3 3 3 3 3 2 4 0 4 2 4 4 4 4 3 2 2 2 3 2 6 1 6 6 7 7 3 2 2 3 4 5 5 6 6 6 6 6 6
26 27 16 6 4 4 6 6 5 5 6 5 4 4 5 6 7 5 1 4 6 3 1 4 3 4 4 3 3 4 6 6 6 4 4 2 2 1 2 2 1 3 6 3 2 3 5 3 2 1 3 3 2 3 2 6 3 4 4 3 1 1 1 2 1 1 2 4 4 6 4 5 6 8 7 5 5 6 4 1 3 4 6 6 6 6 5 6
25 26 15 5 3 4 4 4 5 4 3 2 3 3 4 5 6 4 2 4 5 2 1 4 2 3 4 2 1 4 4 7 5 5 4 2 2 3 2 4 2 5 3 2 2 3 3 3 3 2 2 2 1 4 3 7 5 5 4 2 0 2 1 1 1 1 2 1 2 4 4 3 5 7 6 4 7 9 8 6 4 1 4 6 7 6 5 5
25 26 14 4 2 2 4 5 6 3 0 1 3 4 4 5 5 3 3 4 4 0 1 3 2 3 2 1 2 2 5 6 4 5 4 3 3 4 1 4 3 6 2 4 3 4 3 3 3 1 2 1 3 4 4 6 4 5 3 2 1 2 2 1 2 1 1 2 2 5 3 1 5 5 4 3 7 10 10 9 8 6 3 3 5 6 6 6
24 25 13 2 1 2 4 5 6 3 1 2 4 3 3 3 2 3 4 3 2 1 2 2 2 3 1 3 4 4 5 3 2 4 2 3 5 2 3 6 4 7 3 4 3 6 3 5 5 4 3 3 5 4 3 5 3 5 2 1 2 1 1 1 2 1 0 1 3 5 4 2 4 3 3 5 7 8 8 8 9 9 8 3 1 3 5 6
23 23 12 1 2 3 3 3 4 3 2 4 5 3 1 0 2 4 4 2 1 3 2 1 2 1 3 7 6 4 5 5 5 5 3 3 6 5 7 7 4 4 4 3 6 7 5 2 2 4 5 4 3 3 2 3 2 3 4 3 3 2 1 1 1 1 2 1 3 5 4 1 2 4 4 5 5 5 5 7 9 10 10 8 4 2 4 5
23 20 10 1 3 4 3 3 3 2 1 4 5 2 2 2 4 5 4 1 0 4 3 2 3 2 5 7 6 5 6 6 4 2 4 4 5 6 5 4 4 3 5 5 5 7 7 4 3 4 5 3 2 2 3 1 2 4 5 2 2 2 2 2 1 2 2 3 4 5 2 2 1 5 4 4 5 4 5 6 8 9 11 9 7 5 4 4
22 16 7 1 3 5 5 4 3 2 2 4 4 1 4 4 4 2 4 3 2 3 3 2 4 4 5 6 6 5 5 5 4 3 4 4 4 5 3 1 1 2 4 4 4 6 5 4 4 4 3 4 4 4 4 5 5 5 4 2 3 2 1 2 1 1 1 4 4 4 2 1 3 6 4 5 6 6 6 6 7 9 10 9 7 6 5 4
20 12 4 1 4 7 8 6 3 1 3 4 1 3 4 5 4 1 4 4 1 2 1 1 3 3 6 7 6 5 4 4 4 4 4 3 4 5 5 6 3 3 1 2 3 4 4 5 3 3 3 5 7 4 1 3 2 2 2 2 3 2 1 2 2 1 2 4 4 2 1 0 4 5 5 5 6 6 6 5 6 7 8 8 7 7 6 5
16 8 2 1 4 7 8 7 4 2 3 2 3 4 4 4 3 1 3 4 3 2 1 1 4 5 5 5 4 3 3 4 2 3 4 4 4 4 5 7 6 3 1 2 2 1 1 4 4 4 2 5 6 5 6 4 1 2 3 4 3 3 3 3 2 3 3 2 4 2 1 2 3 3 5 5 5 6 6 5 5 5 6 7 7 6 5 5
12 6 3 1 4 6 7 7 5 2 1 2 4 4 4 3 4 3 4 4 3 4 3 2 6 8 7 5 4 1 1 3 2 3 4 3 4 3 3 5 8 5 1 2 2 1 3 2 6 5 4 5 4 4 5 5 1 2 1 3 2 4 4 2 3 4 4 1 3 2 1 3 3 3 4 4 5 6 5 5 6 6 6 6 6 6 5 4
9 5 2 1 3 5 7 7 5 3 2 4 5 4 2 0 2 3 3 3 3 4 7 6 5 7 7 4 5 4 1 2 4 3 4 5 5 5 4 5 7 6 3 1 2 1 3 3 6 4 4 6 5 5 3 4 2 1 2 1 4 4 3 0 2 1 3 2 2 1 0 3 4 4 5 3 3 4 4 5 6 7 6 6 5 5 4 4
6 2 1 1 3 6 8 7 5 4 3 5 4 2 0 2 2 2 3 2 1 1 6 8 2 3 7 6 5 7 6 5 4 3 4 4 4 4 4 5 6 7 5 4 1 1 3 2 5 2 4 6 3 2 4 5 5 3 1 4 3 1 1 1 1 1 2 1 3 1 1 1 2 3 4 4 4 3 3 4 6 6 6 6 4 3 5 4
6 1 1 1 4 7 8 6 5 4 4 5 3 0 1 1 2 2 2 2 1 2 6 6 1 1 5 7 6 7 7 6 5 4 4 3 2 3 2 3 5 6 5 5 1 2 3 1 5 3 2 5 2 4 3 6 7 5 5 5 2 2 1 1 2 2 2 2 1 1 0 1 2 3 3 5 6 5 5 5 6 7 8 7 4 3 4 3
6 0 1 2 5 8 8 5 4 3 5 5 4 2 0 2 3 2 1 1 1 3 5 4 2 1 2 4 6 6 4 4 5 5 2 2 2 2 3 2 4 6 5 4 2 2 2 3 3 5 2 2 4 4 2 3 4 3 4 4 1 2 2 2 2 2 3 2 1 0 1 1 4 4 3 6 8 7 7 6 6 8 9 8 8 7 5 3
5 1 1 3 6 7 6 5 4 5 5 3 2 2 2 2 4 2 1 1 1 1 3 3 4 4 3 2 4 5 2 2 5 4 1 2 3 3 3 2 2 5 5 2 2 1 1 2 1 5 5 4 3 1 3 2 1 1 2 1 1 1 1 1 0 1 4 3 2 2 0 3 4 3 4 7 7 6 7 6 5 7 8 8 9 9 8 6
3 2 1 4 5 6 5 5 4 3 3 1 0 2 2 1 3 4 2 2 0 2 0 2 3 5 5 4 4 4 3 4 4 3 3 3 2 3 4 4 3 2 1 2 3 1 1 2 2 2 4 3 3 6 6 5 4 3 2 1 1 1 2 3 1 1 2 3 3 3 2 3 4 3 5 6 6 6 8 9 8 7 8 7 9 9 8 8
2 1 2 5 5 5 4 4 3 1 2 2 1 2 2 1 1 5 4 3 2 1 1 1 2 3 4 4 4 5 4 4 3 2 3 3 3 4 4 3 3 2 2 0 3 3 2 2 2 1 1 4 7 5 3 5 5 4 4 3 2 2 3 4 2 1 1 1 2 3 2 3 4 4 5 5 6 8 9 11 10 8 7 7 9 10 9 9
2 2 1 5 5 4 4 3 4 3 2 2 2 2 2 0 1 4 5 3 2 3 3 2 2 2 2 3 4 7 5 2 2 2 4 6 6 7 5 3 1 2 2 0 2 1 1 2 2 3 3 5 6 4 2 2 3 0 5 5 3 2 3 4 3 2 2 0 1 3 1 4 4 4 6 8 9 9 9 10 10 8 8 8 11 12 11 12
3 2 1 4 5 4 5 3 5 5 3 3 3 4 4 2 2 2 3 2 1 2 3 3 1 2 3 2 4 6 3 1 2 3 4 5 5 6 6 3 1 2 3 2 2 0 2 1 2 3 4 5 5 4 4 3 2 1 4 4 4 4 3 2 1 2 3 1 2 4 1 4 3 3 6 9 10 9 9 9 10 10 11 11 12 12 12 13
3 2 3 4 4 4 4 1 2 4 5 5 5 6 5 3 4 3 2 4 4 1 3 3 3 4 5 4 5 5 2 1 2 3 3 5 6 5 6 6 4 5 6 4 2 1 1 0 2 3 3 3 3 2 1 2 3 2 3 3 4 4 3 3 2 3 2 2 1 3 2 3 3 4 7 9 9 9 9 11 12 13 14 12 12 12 13 14
2 3 4 5 4 4 3 1 1 2 4 5 5 5 5 5 4 3 3 4 4 5 5 5 5 6 7 6 6 6 4 2 4 5 6 6 6 4 5 6 6 7 6 4 2 1 0 2 2 4 3 2 4 6 5 3 2 2 2 3 3 3 3 4 4 3 1 1 2 1 3 3 4 7 9 10 11 10 11 13 13 13 13 12 12 12 13 13
2 1 2 3 4 5 5 4 3 2 2 3 4 4 5 7 7 4 2 3 3 5 4 3 4 6 6 7 6 6 5 4 6 7 6 5 6 6 5 4 6 6 4 2 1 2 2 4 3 4 6 6 7 8 5 4 3 3 3 3 3 2 1 4 3 2 2 2 1 4 3 2 5 10 11 12 12 11 12 13 12 11 11 11 11 10 12 12
3 0 1 3 3 3 4 4 5 3 2 2 2 3 6 9 8 4 3 3 4 4 2 2 3 4 6 7 5 5 6 6 6 7 5 5 6 7 6 5 5 4 3 2 2 3 1 4 2 3 7 6 6 6 4 3 4 3 3 4 3 2 0 2 1 2 2 3 2 4 2 3 7 9 10 11 10 9 9 10 9 10 11 11 11 10 11 13
3 1 2 4 3 1 1 2 3 4 3 2 2 4 8 10 8 4 3 5 6 3 2 4 5 4 4 4 3 5 6 4 5 6 5 5 5 4 4 4 4 4 2 3 3 3 1 4 3 2 6 6 4 4 3 3 3 4 3 3 3 3 3 2 2 2 1 2 4 3 3 5 7 9 9 8 7 7 8 9 10 11 12 12 12 13 13 14
3 2 1 4 4 1 1 1 4 5 4 2 3 4 7 8 8 6 3 3 5 5 4 6 7 6 3 2 3 6 4 2 5 7 5 5 4 3 1 1 2 3 2 2 2 1 2 2 2 3 4 5 4 3 3 3 3 5 4 3 2 3 4 4 4 2 1 1 3 1 2 5 6 8 8 8 9 10 11 12 13 13 13 14 14 16 16 16
5 3 1 3 4 3 3 3 4 5 5 5 4 5 6 8 9 9 4 2 1 2 3 7 10 7 4 5 7 8 7 5 7 9 6 4 4 2 2 2 0 1 2 2 1 1 1 2 4 5 4 4 5 4 4 4 3 5 6 5 3 3 4 5 4 3 2 1 1 0 1 3 6 7 7 9 11 13 14 14 14 14 15 15 16 16 16 16
5 4 3 4 3 4 4 4 4 5 5 5 5 5 6 8 10 9 5 2 1 1 2 7 11 7 6 9 10 9 9 11 12 12 9 8 9 8 6 5 2 1 1 1 1 1 1 3 4 4 3 5 5 3 4 5 5 4 5 5 4 4 5 5 6 6 5 3 2 2 3 4 5 4 6 9 11 13 14 14 13 13 14 14 15 15 15 15
Wind_Direction
40 41 43 45 46 45 44 46 55 77 109 115 93 71 58 52 50 42 38 33 32 30 27 29 31 31 28 31 25 18 36 71 88 85 88 112 119 118 109 101 103 108 111 116 125 133 140 153 156 161 163 162 159 140 146 142 194 223 225 234 194 166 100 112 173 60 49 50 126 146 170 275 89 86 72 95 82 83 89 64 60 64 58 74 98 115 121 126
39 37 38 40 44 44 43 42 46 65 111 133 107 64 50 40 38 32 29 28 28 25 25 28 27 27 30 28 22 46 84 89 90 87 104 125 122 116 108 101 99 106 113 121 135 141 145 151 158 172 170 157 154 153 161 169 225 242 237 230 126 71 64 50 343 29 7 358 65 106 92 17 36 60 45 288 76 84 74 64 56 67 74 102 113 115 114 111
38 36 34 34 37 38 39 38 38 49 94 167 153 50 32 24 24 22 19 20 21 19 21 23 24 24 23 21 29 87 102 97 91 88 111 122 116 110 103 96 90 96 107 131 152 161 157 151 168 186 180 158 150 169 167 173 219 254 267 247 79 72 81 70 6 21 6 360 46 72 57 57 42 40 341 309 31 78 37 47 30 65 97 113 121 120 108 99
37 34 31 29 29 29 31 31 32 34 36 214 225 308 357 5 6 9 10 12 14 12 15 18 21 19 15 20 54 115 125 119 96 87 115 115 103 100 89 80 75 75 93 141 158 167 170 171 184 195 200 160 143 184 161 150 229 292 310 353 67 76 87 68 33 34 27 19 48 54 52 69 52 40 4 318 283 70 42 39 24 66 111 115 125 129 109 96
34 32 29 26 22 21 20 20 23 19 16 277 249 273 317 335 348 357 0 3 5 6 11 15 18 19 16 27 86 143 174 147 99 103 121 106 93 86 71 63 58 59 88 144 167 179 180 188 197 200 211 163 151 193 137 109 275 69 37 26 54 24 49 63 46 47 47 46 54 45 44 57 58 49 24 353 20 57 22 19 27 90 115 120 126 122 104 95
29 27 25 23 19 15 12 9 9 5 4 320 267 267 287 309 326 340 350 355 359 3 10 14 18 20 21 46 88 149 207 124 111 140 114 99 88 75 65 60 59 68 84 112 156 186 188 194 196 193 198 165 154 178 114 123 259 227 80 58 54 31 52 71 66 60 54 56 52 43 51 57 73 67 45 34 55 54 29 55 80 106 115 122 120 109 103 95
22 20 18 17 14 12 8 3 356 351 348 328 284 267 273 288 305 326 340 347 355 3 12 16 20 21 32 80 96 105 106 97 116 134 107 99 85 72 65 60 58 71 79 96 147 182 187 197 197 188 184 154 143 121 111 133 223 281 98 82 65 59 72 77 73 68 58 60 58 56 75 64 32 65 62 51 58 57 68 97 98 103 110 114 108 102 105 98
12 12 11 8 7 6 3 360 351 339 331 324 298 266 260 271 288 312 325 340 352 1 10 13 21 24 39 101 128 114 99 97 114 115 109 102 82 68 61 56 56 69 73 83 119 158 178 194 194 194 188 123 127 126 129 147 119 71 100 95 82 80 83 81 79 72 62 66 69 70 73 58 55 84 74 58 66 73 87 103 99 99 100 99 95 95 103 100
5 3 2 359 358 357 356 355 347 336 322 313 303 277 254 261 274 295 315 336 347 359 7 10 22 25 45 108 160 121 94 99 120 112 116 101 81 61 54 49 53 65 60 67 85 116 163 187 189 201 171 109 125 127 138 219 88 88 100 101 97 91 84 79 75 63 60 60 41 50 64 54 89 102 74 63 79 87 96 106 103 106 102 93 91 93 103 101
1 358 355 352 349 347 348 347 344 338 322 306 299 285 259 259 266 283 306 326 342 359 1 6 20 27 60 120 188 128 91 103 122 117 121 98 74 56 50 46 51 61 55 57 63 68 91 121 142 159 135 115 124 110 81 1 95 105 106 98 94 91 81 67 65 56 51 53 19 11 60 59 108 102 62 72 97 101 106 113 112 113 111 105 105 107 110 108
360 356 351 347 343 341 340 338 340 336 326 309 292 285 272 262 262 275 296 318 342 355 356 7 17 33 75 154 182 118 98 99 113 121 121 98 71 58 49 51 52 58 63 53 56 73 97 106 119 147 138 121 113 93 85 96 111 116 118 107 98 95 87 69 67 53 6 48 25 336 349 134 113 85 87 106 118 113 113 117 119 120 120 121 119 120 120 119
358 355 350 345 340 337 333 331 333 334 327 310 294 283 276 267 262 271 290 314 340 351 355 4 10 44 97 134 85 102 114 105 113 121 118 106 80 70 65 60 55 68 76 61 57 79 122 128 127 125 120 130 128 106 105 117 126 129 151 123 118 131 107 79 73 53 355 33 19 325 263 135 86 79 111 125 126 120 121 119 121 125 127 134 131 130 136 135
356 354 350 345 339 333 329 326 327 332 325 310 301 283 274 268 260 269 289 309 337 351 355 358 14 63 124 121 82 98 119 111 123 129 122 112 88 82 76 65 61 74 81 72 63 86 122 124 112 102 112 127 115 111 122 138 156 149 197 209 152 161 114 97 110 109 25 28 355 319 247 92 64 84 121 134 135 129 129 124 126 131 133 140 143 148 152 143
354 352 349 345 338 331 326 322 324 330 323 308 301 285 271 261 258 265 283 308 338 346 349 353 24 80 119 105 89 95 111 116 125 129 125 109 94 82 69 67 68 73 82 80 76 96 111 112 112 107 100 97 114 127 132 148 185 176 183 190 192 96 91 109 142 176 110 62 314 307 44 81 58 90 128 139 148 146 142 135 134 137 141 145 148 165 168 154
353 351 349 345 339 331 326 323 324 328 321 309 301 286 261 253 249 249 277 324 340 341 349 352 34 100 130 112 96 93 100 107 109 118 132 114 96 77 69 73 67 66 85 86 88 102 107 108 114 106 93 106 137 151 139 143 167 225 210 114 44 46 95 124 148 190 52 64 307 314 29 94 85 120 140 146 156 160 159 149 144 144 149 149 150 163 168 171
353 351 349 345 340 334 329 328 330 330 326 318 300 258 235 209 153 173 6 61 324 338 331 349 54 138 151 117 115 105 93 102 121 134 143 133 128 127 106 89 68 64 93 95 96 104 105 104 102 105 117 134 157 168 152 149 132 87 344 59 49 39 97 127 136 148 120 94 300 324 358 83 96 123 144 158 163 164 165 152 149 150 153 157 156 155 159 173
353 351 350 347 341 338 335 338 343 336 337 3 131 120 114 106 114 106 91 120 332 341 334 13 96 141 113 121 142 132 110 130 144 148 152 149 141 132 124 106 97 105 116 109 103 107 105 111 122 123 140 168 194 230 198 127 96 95 45 63 65 24 45 103 114 139 178 208 114 87 326 46 86 115 141 170 175 172 176 157 153 157 161 166 164 161 162 172
353 352 351 348 343 342 344 354 6 4 69 126 122 107 111 103 102 104 92 77 298 218 86 71 127 147 118 138 156 125 132 151 148 151 151 151 138 122 126 136 134 134 141 134 118 135 134 140 185 161 151 173 197 255 315 55 48 67 62 72 96 82 56 72 88 133 175 205 172 161 209 68 93 117 133 172 185 186 186 164 163 165 167 169 169 169 166 169
353 353 353 350 346 348 357 23 57 82 106 126 120 105 110 100 99 107 84 87 243 229 112 95 148 98 104 124 113 114 143 151 150 154 148 156 142 107 125 146 148 162 181 173 136 146 168 172 202 184 155 153 185 297 23 43 12 21 48 45 64 86 79 69 78 120 184 213 190 206 25 72 93 114 128 166 184 195 192 184 187 179 176 178 176 173 170 173
352 353 355 354 351 354 15 59 84 90 107 121 119 116 127 139 145 131 100 160 227 359 53 53 1 56 100 110 92 121 143 148 153 160 167 168 149 139 146 149 168 190 203 186 126 122 245 219 200 81 55 47 17 355 13 19 342 327 8 82 61 71 80 77 85 121 219 251 101 43 338 27 66 111 130 159 177 194 199 197 204 198 190 189 184 174 170 173
352 354 357 359 355 2 46 79 86 86 101 114 108 98 82 69 135 124 101 144 142 64 31 3 347 33 78 99 113 127 145 153 152 161 168 159 180 185 163 173 196 182 139 111 107 134 243 235 77 23 5 357 352 8 313 267 281 280 283 79 94 76 80 82 82 125 206 260 82 60 295 248 83 107 132 162 183 191 199 196 198 202 197 190 190 178 166 164
351 355 359 2 359 20 76 87 86 88 103 107 93 86 81 63 57 77 58 154 128 96 27 27 6 36 74 107 129 141 158 154 143 160 178 165 202 209 158 194 211 144 137 182 180 179 213 129 57 16 341 346 7 158 224 243 254 259 325 13 70 71 97 106 98 137 187 265 50 34 297 74 76 82 134 174 197 188 190 199 196 196 197 191 189 180 169 167
351 355 360 3 6 50 95 93 93 96 108 103 88 85 81 63 47 56 36 193 122 93 54 48 45 86 99 100 120 145 164 148 132 138 168 177 195 227 169 200 181 148 172 193 211 200 159 66 49 45 163 174 152 172 216 222 231 281 20 41 75 65 54 87 104 145 173 275 341 319 293 80 87 110 123 159 211 221 212 218 224 217 215 206 195 187 178 178
351 355 359 5 21 79 108 105 108 106 106 97 87 82 68 49 31 38 41 246 122 99 74 78 84 87 85 103 121 131 131 110 98 116 137 176 162 124 178 190 182 175 158 174 253 55 76 58 53 123 162 224 208 177 219 230 167 101 8 11 58 58 27 45 100 156 178 208 289 297 283 85 81 95 97 112 181 230 233 231 232 228 229 223 214 209 198 191
350 354 359 9 36 104 118 115 125 110 95 83 75 69 51 39 24 26 7 217 131 113 114 117 110 88 79 96 104 111 125 97 63 101 117 79 51 126 127 152 240 169 128 155 213 95 71 61 98 170 158 225 233 158 218 279 151 125 76 19 32 41 46 65 116 197 205 135 17 318 341 90 76 72 73 89 133 167 199 228 239 230 228 229 227 221 208 200
348 353 357 9 49 125 122 116 137 113 89 75 60 45 33 29 15 15 295 202 132 106 161 146 143 120 104 70 88 183 172 106 65 81 100 89 62 334 190 166 302 108 129 180 181 93 75 96 181 178 121 184 219 101 68 298 282 114 73 33 26 353 49 93 92 300 357 57 29 334 351 87 88 71 67 77 83 88 114 187 250 237 228 228 230 226 212 202
348 351 354 11 52 131 133 137 147 111 80 73 30 7 16 9 354 356 273 182 127 72 173 130 114 113 105 55 98 211 162 116 108 80 62 70 73 299 240 145 133 110 128 233 135 86 55 120 138 87 129 196 158 82 37 309 310 76 57 351 282 302 319 62 332 15 33 65 102 17 2 64 78 72 82 95 83 78 75 66 52 331 242 229 227 224 218 209
347 349 351 11 54 110 133 150 144 113 61 17 356 336 343 351 349 318 237 154 104 341 164 111 112 114 89 64 80 48 84 114 155 97 71 48 45 279 237 91 116 120 142 269 131 96 31 53 65 57 228 222 49 37 1 310 328 72 62 338 8 326 329 309 287 57 50 253 106 53 350 10 80 87 105 87 68 67 61 57 53 39 20 243 229 220 218 217
347 346 348 7 120 116 143 153 137 124 111 8 340 321 327 347 353 274 230 144 87 217 143 107 158 129 138 158 109 76 88 78 29 85 95 17 37 353 86 85 105 121 141 293 78 101 71 35 17 335 303 52 52 23 339 307 357 82 125 183 140 199 222 254 300 37 174 269 65 41 351 8 87 88 73 58 50 47 49 53 50 45 47 47 196 206 208 210
346 343 343 344 163 159 159 153 142 130 82 9 346 338 331 275 216 211 188 147 93 150 133 273 202 138 189 169 124 98 111 81 65 96 110 77 81 80 88 107 151 146 136 88 82 101 106 89 34 14 11 27 39 47 25 324 30 134 204 202 166 165 166 223 341 302 249 92 55 31 8 324 100 78 51 49 41 26 33 49 49 48 53 57 70 132 183 196
344 340 335 311 178 183 160 154 180 173 23 350 352 344 190 194 229 204 159 150 152 145 166 181 146 161 188 168 130 120 122 92 74 141 125 111 118 113 108 144 179 179 155 125 111 132 145 157 125 73 33 1 239 146 98 157 175 201 235 245 210 192 189 206 169 244 271 70 44 33 46 265 61 69 51 59 66 44 36 44 47 47 51 57 66 87 118 162
343 337 326 267 190 196 183 175 195 225 290 329 351 223 199 187 212 190 129 165 191 149 173 143 119 144 157 140 119 126 126 91 65 66 100 109 105 87 43 10 160 195 176 143 148 158 145 112 108 136 81 8 277 211 146 156 186 226 244 254 259 240 206 276 327 315 15 61 43 42 78 251 71 69 50 64 72 61 52 47 50 50 51 58 63 76 97 124
343 336 322 214 194 202 202 194 190 249 299 329 309 209 225 198 183 109 126 161 147 96 120 78 103 151 164 147 124 115 106 85 78 89 100 115 113 92 61 44 355 284 189 134 178 181 146 120 105 154 131 7 325 290 114 132 182 248 280 292 288 313 352 308 315 20 51 71 72 73 254 247 98 80 50 64 75 72 76 68 64 63 60 62 64 71 88 107
344 336 330 251 201 201 206 197 193 262 306 311 212 199 230 203 149 94 157 142 92 113 149 135 144 155 160 142 116 114 109 84 79 154 160 154 130 115 92 66 15 321 182 165 192 266 197 139 63 31 30 357 358 6 3 353 1 23 331 300 309 358 348 321 334 20 33 78 103 126 263 12 69 62 48 73 92 87 90 90 90 89 79 74 72 72 80 97
343 334 341 239 206 198 196 184 185 242 275 227 216 199 210 187 143 163 165 123 121 153 147 179 178 158 141 122 104 69 14 85 119 154 141 136 109 81 73 54 25 5 261 203 140 292 272 110 68 50 31 12 35 41 347 310 322 81 279 274 16 21 355 7 26 11 344 324 100 93 6 56 74 94 85 100 113 102 103 111 103 90 86 83 77 79 84 90
345 334 351 178 202 188 178 169 170 185 188 211 214 193 192 101 134 167 143 115 147 158 152 162 182 165 151 148 137 129 61 120 163 155 100 96 91 70 55 48 22 360 337 335 108 221 255 113 94 101 89 53 41 49 20 317 315 142 213 73 55 7 325 44 95 64 287 283 97 66 3 112 132 132 109 107 103 90 92 94 81 73 78 73 65 80 90 88
358 348 32 169 193 178 171 165 152 148 189 220 217 185 70 35 71 115 108 122 126 162 174 165 171 187 164 161 146 145 150 148 167 179 134 123 92 56 54 62 21 359 5 352 24 21 300 127 115 120 107 91 40 23 71 31 340 298 127 97 99 290 274 266 281 196 253 319 85 71 326 111 148 124 100 83 58 41 36 53 54 50 50 46 49 82 92 90
2 37 65 210 191 172 173 173 147 146 199 219 200 171 315 101 79 70 100 131 138 219 206 174 149 271 179 168 145 142 164 171 173 169 146 144 108 24 10 68 41 21 10 321 317 66 302 241 127 125 106 117 189 238 139 71 20 11 84 117 218 269 164 240 309 334 315 339 66 133 236 7 48 74 74 59 49 37 29 31 30 32 28 20 25 62 85 96
355 50 171 210 180 170 177 173 149 174 212 210 182 152 166 133 109 91 146 162 203 213 205 172 159 214 184 173 147 139 175 187 167 166 156 143 121 42 350 21 56 48 23 328 336 82 284 276 140 143 147 164 198 231 227 108 71 72 124 153 269 337 356 334 340 336 317 311 328 348 151 81 53 62 59 51 47 33 29 26 23 35 30 19 29 42 52 67
351 290 193 157 163 162 164 158 162 202 209 204 188 133 121 134 119 107 196 204 332 248 192 173 177 168 143 150 149 138 143 154 157 171 160 130 129 88 46 6 34 55 46 46 78 93 246 271 208 142 157 214 205 30 353 17 81 210 202 176 92 97 324 317 170 315 316 310 329 324 308 81 62 48 46 48 40 22 25 16 10 34 33 25 38 45 45 50
339 267 148 146 160 145 147 163 175 215 207 166 186 136 124 118 121 115 137 168 76 3 152 170 169 163 150 145 150 141 131 146 154 148 132 137 130 91 68 7 349 20 16 120 100 23 269 246 248 175 178 187 85 53 28 21 9 339 323 334 341 306 277 265 211 128 311 321 351 317 315 70 74 43 40 39 17 5 11 1 353 22 33 31 45 49 45 48
279 258 125 157 163 143 175 193 158 217 232 153 131 129 110 345 153 134 135 159 170 117 113 115 110 134 145 131 132 143 140 136 144 144 135 117 68 58 54 359 326 305 295 54 76 34 319 268 227 161 114 98 86 68 31 14 7 21 46 24 327 318 312 300 324 69 246 347 23 298 305 72 80 46 30 16 3 1 1 353 346 5 27 37 51 53 53 58
292 330 113 173 164 161 218 205 153 192 210 107 97 108 109 108 179 158 155 151 163 157 137 121 93 91 113 123 135 147 138 95 94 114 120 114 81 48 31 16 288 290 304 3 87 94 264 266 185 137 108 109 114 110 82 335 291 28 67 40 0 19 15 344 355 344 282 81 39 278 277 86 84 50 16 0 4 6 3 358 356 14 33 44 55 59 64 69
308 322 243 198 175 194 235 207 175 186 153 124 152 140 118 66 47 138 162 108 80 168 132 107 96 94 104 129 136 135 126 91 112 109 116 124 95 52 41 51 58 359 15 20 27 136 235 254 205 175 157 159 170 172 170 183 214 81 66 48 24 40 26 343 349 281 271 72 349 293 9 79 75 53 19 4 5 11 16 13 16 26 32 44 60 68 74 77
276 222 208 212 193 220 261 283 200 183 151 153 163 150 143 106 53 34 67 76 58 57 111 107 108 113 121 130 122 111 97 123 137 133 133 126 109 81 60 57 62 64 59 45 20 321 284 282 263 254 215 195 196 175 162 150 143 109 68 55 34 29 354 311 271 266 265 121 234 281 7 49 46 39 22 12 9 14 18 17 21 28 32 47 64 72 76 74
251 208 190 187 195 230 249 319 299 214 162 165 161 161 174 148 106 55 59 81 79 75 86 108 127 131 133 137 126 115 111 121 142 159 161 140 122 98 63 62 74 80 78 60 25 288 236 81 4 339 3 26 61 73 40 12 93 113 61 61 49 23 337 287 267 283 12 157 205 45 25 3 32 29 12 7 8 9 12 14 23 33 40 55 64 65 69 67
244 242 188 180 192 217 213 202 223 208 156 187 173 165 175 153 136 125 71 63 105 107 90 101 140 151 154 151 134 115 117 128 137 146 150 134 120 112 102 91 85 90 100 78 16 255 183 111 49 33 58 55 62 79 61 27 64 68 50 60 55 35 306 262 272 351 20 258 197 79 46 343 30 22 5 4 3 3 9 15 25 38 51 67 71 66 68 67
233 243 256 235 216 210 201 196 197 172 140 224 193 162 175 164 151 150 119 109 139 144 128 141 153 162 162 157 145 130 132 132 131 140 145 141 138 138 136 119 95 107 140 117 58 296 231 115 88 72 90 80 75 93 89 65 78 84 70 60 43 31 289 242 284 13 320 292 31 69 45 26 29 13 6 8 1 2 17 26 40 52 61 70 70 65 62 60
256 280 232 229 240 318 50 129 176 181 174 197 190 176 183 174 156 134 120 146 164 169 166 160 151 142 145 149 158 153 147 138 140 153 157 145 151 168 155 129 114 126 135 96 76 332 308 115 110 121 118 106 94 102 96 79 101 110 88 58 54 65 68 85 85 59 331 346 37 50 70 61 32 8 13 20 17 33 47 52 58 58 59 62 59 56 52 51
263 285 222 223 237 248 73 142 194 190 179 188 195 178 185 185 165 140 120 162 167 162 181 174 147 130 130 144 152 141 127 129 156 158 164 160 163 193 194 123 113 123 116 94 91 330 298 127 150 212 159 123 121 131 118 103 113 110 84 64 106 117 98 91 83 58 33 74 63 64 107 77 32 15 30 44 51 62 63 60 59 54 53 56 55 52 50 49
241 256 266 249 230 189 176 210 215 204 192 194 190 169 181 189 168 142 106 31 122 150 180 162 140 127 129 125 115 105 89 85 115 124 125 127 121 97 66 78 118 158 136 126 133 249 266 148 170 227 217 138 139 154 138 143 153 117 82 64 86 112 98 90 73 38 20 45 74 188 111 53 20 19 50 62 63 65 61 56 54 51 51 52 50 49 47 45
245 262 273 261 235 192 194 208 212 212 201 185 177 169 177 181 168 151 125 70 40 47 119 147 145 138 129 117 105 96 93 90 93 99 100 95 93 86 81 89 86 349 131 148 167 218 246 175 172 226 234 136 139 163 158 178 191 131 74 43 55 88 98 96 76 54 30 351 347 38 53 41 22 30 64 68 64 63 59 54 49 47 47 46 43 40 36 35